Overview Statistics Trail Chart Weather Telemetry Raw packets
 

This is the latest recevied weather packets stored in our database for station/object SV4JYD-13. If no packets are shown the sender has not sent any weather packets the latest 10 day(s).

<< 29 30 31 32 33 34 35 >>
Time Temp. Humidity Pressure Rain* Wind** Luminosity Snow
1777335671 14.44° C 10% - 0 mm - - -
1777334769 14.44° C 10% - 0 mm - - -
1777333869 14.44° C 10% - 0 mm - - -
1777332969 14.44° C 10% - 0 mm - - -
1777332068 14.44° C 10% - 0 mm - - -
1777331168 15° C 10% - 0 mm - - -
1777330267 15° C 10% - 0 mm - - -
1777329367 15° C 99% 1021 hPa 0 mm - - -
1777328466 14.44° C 98% 1021 hPa 0 mm - - -
1777325761 13.89° C 95% 1021 hPa 0 mm - - -
1777324860 12.22° C 98% 1021 hPa 0 mm - - -
1777323959 13.89° C 93% 1021 hPa 0 mm - - -
1777323061 12.22° C 98% 1021 hPa 0 mm - - -
1777322159 12.22° C 98% 1021 hPa 0 mm - - -
1777321259 12.22° C 98% 1021 hPa 0 mm - - -
1777320358 12.22° C 98% 1021 hPa 0 mm - - -
1777319462 12.22° C 98% 1021 hPa 0 mm - - -
1777318558 12.22° C 98% 1021 hPa 0 mm - - -
1777317658 12.78° C 98% 1021 hPa 0 mm - - -
1777316757 12.78° C 97% 1021 hPa 0 mm - - -
1777315857 12.78° C 96% 1021 hPa 0 mm - - -
1777314957 13.33° C 95% 1021 hPa 0 mm - - -
1777314057 13.89° C 93% 1021 hPa 0 mm - - -
1777313156 14.44° C 91% 1021 hPa 0 mm - - -
1777312256 15° C 88% 1021 hPa 0 mm - - -

* Rain latest hour (hover to see other rain measurements)
** Current wind speed in m/s (hover to see current wind gust speed)